Vertical_Velocity
0 1 1 -2 -0 2 -1 -0 2 -1 -1 1 1 -2 1 -0 -3 -0 -5 3 3 -1 -3 1 2 0 0 4 3 -7 36 5 3 -3 -2 -8 -2 -4 -2 -5 1 1 4
0 -2 -1 -0 -2 -0 -1 -1 -5 -1 -3 -1 0 -1 -0 -4 -1 -1 -1 -0 -1 0 -4 -3 -2 -2 -0 1 4 -0 1 6 11 -9 -0 -6 -3 0 2 1 4 4 -1
-1 0 1 1 0 -2 2 1 -0 -3 -2 -3 -1 -2 -1 -2 -1 -1 1 -1 0 0 3 0 -1 -0 2 -1 -12 10 58 19 16 0 -0 -6 -1 11 -0 7 5 3 -1
-3 -4 -5 -4 -2 -2 -4 -3 1 -0 -2 -1 -2 -1 -1 -0 0 3 1 1 0 -1 -5 -6 0 -0 -0 -1 1 14 16 -33 22 4 32 7 -7 8 3 -1 7 2 -5
-4 -4 -3 -3 -3 -2 -4 -2 -3 -1 2 -2 -1 -3 -3 -1 -3 -2 -1 -2 -3 -4 -3 -3 -8 -3 1 2 -2 10 10 39 9 -4 14 -2 7 1 3 5 3 -1 3
-0 -1 -3 -4 -1 0 -3 -4 -1 -2 -3 1 -1 -1 -1 -3 -3 -0 1 1 -0 -3 -6 -8 -1 -2 1 -0 2 3 -3 0 18 21 10 1 -3 -3 -6 8 11 2 -0
0 1 0 -2 -3 -2 0 -2 -4 -1 -2 -5 -1 1 -2 -1 -2 -2 -2 -1 -2 -1 -2 -4 -2 1 5 4 -2 9 17 10 -1 35 7 6 16 -6 0 -0 1 3 0
-0 -1 1 1 -2 -1 -2 0 -1 -2 -2 0 -2 -2 -3 -5 -3 -2 -3 -3 -2 -1 -7 -1 0 1 0 3 2 3 0 4 18 35 9 10 11 7 9 -0 3 -3 -6
-2 -2 -2 -2 -2 -3 -1 1 2 1 0 -1 -0 -1 -2 2 0 -4 -5 -5 -2 1 -3 -3 4 4 5 2 2 -3 -2 -3 6 3 -6 10 5 14 -1 13 -3 1 -1
0 -2 -1 -1 -0 1 -0 1 1 2 0 1 1 -0 -1 -4 -2 2 5 -0 -5 -2 -1 0 5 5 7 3 -1 8 1 6 -2 6 4 -12 6 16 9 6 6 -5 2
-4 -0 -0 0 -1 -1 -1 -1 -1 -0 1 -0 1 2 3 1 -2 -2 -1 1 4 5 -2 -1 -2 1 3 -2 6 -3 -1 2 7 -0 -7 22 0 11 4 6 1 2 7
0 -2 -2 -1 -2 -0 1 -0 -1 0 1 1 -1 2 2 2 1 -1 -3 -3 -1 -0 3 5 2 3 3 2 -2 4 2 1 4 14 -1 -1 7 -11 19 10 -4 -1 -2
1 -3 -1 -3 -2 -1 -1 2 4 3 1 1 2 2 3 4 3 0 -0 2 -1 -2 -0 0 2 3 4 3 2 5 1 1 -5 1 7 -0 -3 -2 1 3 -1 -2 1
-4 -3 -3 -1 1 -3 -2 2 5 4 1 2 2 2 2 2 3 4 5 3 1 -1 -1 -1 -0 -1 2 1 3 0 -1 3 2 2 2 6 8 5 6 4 0 -0 1
-1 1 -3 -4 -6 3 4 3 7 1 6 2 3 1 1 2 2 2 1 2 3 3 2 -2 -2 1 1 1 3 3 2 -1 -0 -1 -3 -3 -1 -0 -1 -1 -1 -5 -3
-8 -3 -0 -1 1 0 1 4 4 4 5 2 1 -1 0 2 2 2 1 -0 -0 0 1 4 4 -1 -3 -2 -4 -1 1 3 1 1 3 4 1 -1 -0 -1 1 -1 -0
-2 1 3 -0 -2 -0 1 2 4 2 1 1 3 4 3 2 1 1 1 1 1 0 -1 -1 -0 1 2 3 3 1 -1 -2 -4 -5 -5 -5 -2 1 3 0 2 5 -1
2 2 3 2 1 -2 -3 0 1 2 4 5 5 3 3 2 1 0 0 0 -1 0 1 1 1 0 -2 -1 -1 0 4 5 3 3 3 5 3 0 -1 -2 -3 -1 3
-1 1 1 1 1 -1 -3 -4 -2 -1 1 1 0 0 0 1 1 -0 0 -0 0 -0 -0 1 2 4 2 2 1 2 0 0 1 1 3 0 -2 -4 -5 2 3 1 3
0 -2 0 2 3 1 -1 -2 -1 1 1 -0 -1 0 -0 0 1 1 -0 -1 -1 -2 -2 -2 -2 -3 2 -1 -1 -2 2 0 -0 1 3 -1 -1 5 4 -1 -3 -0 3
0 -0 0 0 3 2 -1 -0 1 0 1 1 1 1 1 0 0 -0 -1 -0 2 1 -2 -0 -3 -4 -4 -3 -5 -6 -6 -1 -0 2 0 4 1 0 1 2 -1 2 0
-1 -0 -0 -0 0 1 0 1 1 -0 -0 1 2 3 1 0 1 1 -2 -4 -3 -1 -2 -0 0 -4 -3 -3 -2 -5 -5 -4 -3 -0 -1 0 -1 -1 -2 1 3 -1 -5
1 -0 3 -0 -0 -0 1 1 1 2 1 2 1 1 1 2 0 1 1 -1 -1 1 -1 -2 -0 1 -2 -1 -5 -2 -4 -5 -5 -3 0 -1 -1 -1 -2 -6 -3 -3 -3
0 -0 2 1 1 0 2 2 1 0 1 -0 0 0 1 0 0 -1 -2 -2 -3 -2 -2 -4 -2 -2 -1 -5 -3 -2 -1 -2 -3 -6 -6 -2 0 -3 -1 0 -2 -3 -4
2 1 -0 1 -0 1 3 2 1 0 0 0 1 0 -1 -1 -1 -1 -1 -0 -4 0 1 -2 -1 -2 1 -4 -3 -3 -1 -3 -3 -4 -2 -2 -3 -1 -0 -1 -0 -2 -1
-1 -1 1 0 0 0 1 0 1 1 2 0 0 1 1 0 1 1 -4 -7 -1 -3 -5 -5 -5 -1 -4 1 0 -1 -2 -2 -2 -2 -3 -1 -3 -2 0 1 1 0 0
Height
5723 5720 5717 5714 5713 5712 5710 5709 5707 5706 5704 5703 5702 5702 5702 5703 5703 5703 5705 5707 5708 5711 5714 5719 5721 5723 5727 5730 5734 5737 5738 5745 5746 5748 5754 5756 5759 5765 5769 5773 5776 5779 5782
5720 5717 5713 5710 5707 5706 5704 5701 5700 5700 5697 5695 5695 5694 5693 5693 5693 5693 5694 5695 5697 5699 5702 5705 5708 5711 5715 5720 5725 5728 5729 5732 5733 5737 5741 5745 5749 5754 5760 5764 5766 5768 5771
5719 5714 5710 5706 5702 5698 5696 5695 5692 5691 5689 5687 5686 5686 5685 5684 5684 5683 5684 5684 5685 5686 5686 5689 5693 5697 5701 5707 5715 5715 5713 5718 5723 5725 5727 5731 5737 5742 5746 5751 5755 5758 5759
5716 5710 5706 5702 5698 5694 5689 5686 5685 5684 5682 5680 5678 5678 5676 5675 5674 5673 5673 5673 5674 5673 5673 5675 5678 5681 5685 5691 5698 5701 5703 5706 5712 5713 5713 5717 5724 5726 5732 5736 5740 5744 5749
5712 5707 5701 5697 5693 5689 5686 5682 5678 5677 5676 5674 5671 5669 5668 5666 5664 5664 5663 5663 5662 5662 5663 5664 5665 5667 5670 5675 5682 5685 5689 5691 5697 5701 5704 5706 5710 5712 5717 5723 5726 5729 5734
5708 5703 5698 5693 5688 5683 5680 5676 5673 5670 5667 5666 5664 5662 5660 5659 5656 5655 5655 5655 5653 5653 5653 5653 5653 5654 5656 5660 5665 5670 5678 5680 5682 5687 5689 5693 5694 5700 5702 5706 5710 5715 5720
5702 5698 5693 5688 5682 5678 5674 5669 5666 5663 5660 5657 5656 5655 5653 5651 5649 5648 5646 5646 5644 5644 5643 5641 5640 5642 5644 5647 5652 5659 5664 5667 5671 5672 5676 5677 5680 5684 5688 5690 5694 5700 5704
5697 5692 5687 5682 5676 5671 5667 5663 5659 5655 5652 5650 5647 5645 5644 5642 5641 5639 5637 5636 5636 5634 5632 5631 5630 5631 5634 5637 5640 5647 5649 5654 5656 5657 5661 5664 5667 5670 5673 5676 5679 5684 5688
5690 5685 5679 5674 5669 5663 5658 5654 5650 5647 5643 5641 5639 5636 5633 5632 5631 5629 5629 5627 5626 5624 5623 5623 5622 5623 5625 5627 5629 5632 5634 5635 5638 5643 5646 5650 5655 5657 5659 5662 5664 5667 5670
5683 5677 5671 5665 5659 5654 5650 5645 5641 5637 5633 5631 5628 5627 5625 5622 5620 5619 5619 5618 5616 5613 5612 5613 5614 5613 5616 5618 5619 5621 5622 5625 5627 5631 5636 5637 5640 5641 5643 5647 5648 5652 5654
5674 5668 5662 5656 5651 5646 5641 5637 5633 5628 5624 5621 5619 5616 5615 5614 5612 5610 5609 5608 5607 5606 5604 5602 5602 5604 5604 5605 5607 5610 5611 5612 5615 5619 5622 5623 5627 5628 5629 5631 5633 5635 5638
5666 5660 5653 5648 5642 5637 5632 5628 5624 5619 5615 5612 5610 5607 5605 5603 5602 5600 5598 5597 5596 5595 5595 5594 5593 5594 5594 5593 5595 5597 5599 5600 5601 5602 5606 5608 5608 5613 5616 5616 5617 5619 5621
5654 5648 5644 5638 5633 5627 5622 5617 5613 5609 5605 5602 5599 5598 5595 5593 5591 5589 5588 5586 5585 5584 5583 5583 5583 5583 5582 5582 5582 5583 5584 5585 5588 5589 5590 5591 5593 5595 5597 5598 5600 5602 5604
5644 5638 5632 5627 5622 5617 5611 5607 5602 5598 5595 5591 5588 5586 5584 5582 5580 5579 5577 5575 5574 5573 5572 5571 5570 5571 5570 5570 5570 5571 5572 5572 5574 5574 5574 5575 5577 5577 5578 5579 5580 5584 5585
5631 5627 5620 5614 5609 5604 5599 5594 5590 5585 5583 5580 5577 5574 5571 5569 5568 5566 5565 5563 5562 5561 5560 5559 5558 5557 5557 5557 5557 5557 5557 5557 5556 5557 5557 5557 5557 5558 5559 5561 5562 5565 5567
5619 5614 5607 5600 5596 5591 5586 5582 5577 5573 5570 5566 5563 5561 5559 5557 5555 5553 5551 5549 5548 5547 5546 5546 5545 5543 5542 5541 5541 5541 5541 5541 5541 5540 5540 5540 5539 5540 5541 5542 5543 5546 5548
5606 5599 5593 5587 5582 5577 5572 5568 5565 5561 5557 5554 5551 5548 5546 5544 5542 5539 5537 5535 5533 5532 5530 5528 5527 5527 5527 5527 5526 5524 5524 5522 5521 5521 5521 5520 5521 5521 5522 5525 5526 5527 5528
5592 5585 5579 5572 5567 5563 5558 5554 5550 5547 5544 5541 5538 5536 5533 5530 5528 5526 5523 5521 5519 5517 5515 5513 5511 5510 5508 5507 5506 5506 5506 5506 5506 5506 5505 5504 5503 5503 5504 5506 5506 5505 5506
5575 5569 5564 5557 5551 5547 5544 5540 5536 5533 5530 5527 5525 5522 5520 5516 5513 5511 5508 5506 5503 5501 5498 5496 5494 5493 5491 5489 5488 5487 5486 5484 5483 5482 5482 5482 5482 5481 5481 5482 5482 5483 5482
5560 5554 5548 5543 5537 5532 5528 5524 5520 5518 5515 5513 5510 5507 5504 5501 5498 5495 5492 5489 5487 5484 5482 5478 5476 5473 5471 5468 5466 5464 5464 5462 5461 5459 5458 5456 5455 5454 5455 5455 5457 5459 5455
5546 5540 5534 5528 5522 5517 5513 5509 5505 5502 5500 5497 5494 5491 5488 5485 5481 5478 5475 5472 5469 5467 5464 5462 5458 5454 5451 5447 5443 5440 5438 5436 5435 5434 5432 5430 5429 5428 5428 5428 5428 5427 5425
5529 5524 5518 5512 5507 5502 5498 5495 5491 5488 5485 5482 5478 5475 5472 5469 5466 5462 5459 5455 5452 5448 5444 5440 5435 5431 5427 5423 5420 5416 5413 5410 5408 5406 5403 5401 5399 5399 5397 5397 5396 5395 5394
5512 5505 5500 5496 5492 5488 5485 5481 5477 5473 5470 5467 5463 5460 5456 5453 5449 5445 5441 5436 5432 5427 5421 5417 5413 5408 5402 5398 5394 5390 5386 5382 5378 5376 5373 5371 5369 5366 5365 5364 5364 5362 5363
5495 5489 5485 5482 5479 5475 5471 5467 5464 5460 5457 5453 5449 5446 5441 5436 5432 5426 5422 5416 5411 5406 5400 5395 5390 5385 5379 5373 5369 5364 5360 5355 5351 5348 5347 5345 5342 5340 5339 5337 5335 5334 5335
5482 5477 5473 5469 5466 5462 5458 5454 5451 5447 5444 5439 5435 5431 5425 5420 5415 5409 5403 5397 5391 5386 5380 5374 5369 5364 5358 5351 5345 5339 5334 5329 5326 5322 5321 5320 5317 5315 5314 5313 5312 5312 5312
5471 5466 5462 5457 5453 5449 5446 5442 5438 5434 5430 5425 5420 5414 5409 5404 5399 5393 5386 5379 5374 5368 5361 5355 5349 5343 5337 5331 5324 5318 5313 5308 5303 5299 5297 5295 5292 5291 5290 5289 5289 5289 5289